• In Hungary
  • List of Countries
  • For 7 days
  • Water Temperature
  • Satellite Maps
  • Weather Map
  • News
  • Weather Widgets
  • user-avatar
    Login

    Hourly Weather Kaskinovo

    Today, 25 September, Tuesday

    Time Temperature Precipitation Wind Pressure Humidity
    00:00 +14°C° 0 mm 2 mps 737 mmHg 65%
    01:00 +14°C° 0 mm 2 mps 737 mmHg 65%
    02:00 +13°C° 0 mm 2 mps 737 mmHg 65%
    03:00 +13°C° 0 mm 2 mps 737 mmHg 65%
    04:00 +12°C° 0 mm 2 mps 738 mmHg 72%
    05:00 +12°C° 0 mm 2 mps 738 mmHg 72%
    06:00 +12°C° 0 mm 2 mps 738 mmHg 71%
    07:00 +13°C° 0 mm 2 mps 738 mmHg 71%
    08:00 +14°C° 0 mm 4 mps 738 mmHg 61%
    09:00 +17°C° 0 mm 5 mps 738 mmHg 52%
    10:00 +20°C° 0 mm 6 mps 738 mmHg 43%
    11:00 +21°C° 0 mm 6 mps 738 mmHg 41%
    12:00 +22°C° 0 mm 7 mps 738 mmHg 38%
    13:00 +23°C° 0 mm 7 mps 738 mmHg 36%
    14:00 +23°C° 0 mm 7 mps 738 mmHg 37%
    15:00 +22°C° 0 mm 6 mps 738 mmHg 39%
    16:00 +22°C° 0 mm 5 mps 738 mmHg 40%
    17:00 +21°C° 0 mm 5 mps 738 mmHg 44%
    18:00 +19°C° 0 mm 4 mps 738 mmHg 47%
    19:00 +17°C° 0 mm 3 mps 738 mmHg 51%
    20:00 +17°C° 0 mm 3 mps 738 mmHg 51%
    21:00 +15°C° 0 mm 4 mps 738 mmHg 51%
    22:00 +15°C° 0 mm 4 mps 738 mmHg 51%
    23:00 +14°C° 0 mm 4 mps 738 mmHg 52%

    Tomorrow, 26 September, Wednesday

    Time Temperature Precipitation Wind Pressure Humidity
    00:00 +14°C° 0 mm 3 mps 738 mmHg 54%
    01:00 +13°C° 0 mm 3 mps 739 mmHg 55%
    02:00 +13°C° 0 mm 3 mps 739 mmHg 56%
    03:00 +13°C° 0 mm 3 mps 739 mmHg 57%
    04:00 +13°C° 0 mm 3 mps 739 mmHg 58%
    05:00 +13°C° 0 mm 3 mps 739 mmHg 59%
    06:00 +13°C° 0 mm 3 mps 739 mmHg 59%
    07:00 +13°C° 0 mm 3 mps 739 mmHg 60%
    08:00 +14°C° 0 mm 4 mps 739 mmHg 57%
    09:00 +16°C° 0 mm 5 mps 739 mmHg 53%
    10:00 +17°C° 0 mm 6 mps 739 mmHg 50%
    11:00 +19°C° 0 mm 6 mps 739 mmHg 50%
    12:00 +19°C° 0 mm 5 mps 739 mmHg 49%
    13:00 +20°C° 0 mm 5 mps 739 mmHg 49%
    14:00 +19°C° 0 mm 5 mps 739 mmHg 50%
    15:00 +19°C° 0 mm 5 mps 739 mmHg 52%
    16:00 +19°C° 0 mm 4 mps 739 mmHg 54%
    17:00 +18°C° 0 mm 4 mps 739 mmHg 55%
    18:00 +17°C° 0 mm 3 mps 739 mmHg 56%
    19:00 +17°C° 0 mm 3 mps 739 mmHg 58%
    20:00 +16°C° 0 mm 3 mps 739 mmHg 57%
    21:00 +16°C° 0 mm 3 mps 739 mmHg 57%
    22:00 +16°C° 0 mm 3 mps 739 mmHg 57%
    23:00 +16°C° 0 mm 3 mps 739 mmHg 56%

    Day after tomorrow, 27 September, Thursday

    Time Temperature Precipitation Wind Pressure Humidity
    00:00 +16°C° 0 mm 3 mps 739 mmHg 55%
    01:00 +16°C° 0 mm 3 mps 739 mmHg 54%
    02:00 +14°C° 0.3 mm 3 mps 739 mmHg 61%
    03:00 +13°C° 0.3 mm 3 mps 739 mmHg 69%
    04:00 +12°C° 0.3 mm 3 mps 739 mmHg 77%
    05:00 +12°C° 0.3 mm 3 mps 738 mmHg 80%
    06:00 +11°C° 0.3 mm 3 mps 738 mmHg 83%
    07:00 +12°C° 0.3 mm 2 mps 738 mmHg 87%
    08:00 +10°C° 0.7 mm 3 mps 738 mmHg 87%
    09:00 +10°C° 0.7 mm 3 mps 738 mmHg 88%
    10:00 +10°C° 0.7 mm 3 mps 738 mmHg 89%
    11:00 +9°C° 1 mm 3 mps 738 mmHg 89%
    12:00 +9°C° 1 mm 2 mps 738 mmHg 88%
    13:00 +9°C° 1 mm 2 mps 738 mmHg 87%
    14:00 +9°C° 0.3 mm 2 mps 738 mmHg 86%
    15:00 +9°C° 0.3 mm 3 mps 738 mmHg 84%
    16:00 +9°C° 0.3 mm 3 mps 738 mmHg 83%
    17:00 +9°C° 0 mm 3 mps 737 mmHg 84%
    18:00 +8°C° 0 mm 3 mps 737 mmHg 85%
    19:00 +8°C° 0 mm 3 mps 737 mmHg 86%
    20:00 +7°C° 0 mm 3 mps 737 mmHg 86%
    21:00 +7°C° 0 mm 3 mps 737 mmHg 85%
    22:00 +5°C° 0 mm 3 mps 736 mmHg 85%
    23:00 +5°C° 0 mm 3 mps 736 mmHg 84%

    28 September, Friday

    Time Temperature Precipitation Wind Pressure Humidity
    00:00 +5°C° 0 mm 3 mps 735 mmHg 83%
    01:00 +5°C° 0 mm 4 mps 735 mmHg 81%
    02:00 +5°C° 0.1 mm 4 mps 734 mmHg 81%
    03:00 +5°C° 0.1 mm 5 mps 734 mmHg 81%
    04:00 +5°C° 0.1 mm 5 mps 733 mmHg 81%
    05:00 +4°C° 0.4 mm 6 mps 733 mmHg 80%
    06:00 +5°C° 0.4 mm 6 mps 733 mmHg 79%
    07:00 +5°C° 0.4 mm 7 mps 732 mmHg 79%
    08:00 +5°C° 0.4 mm 7 mps 732 mmHg 78%
    09:00 +5°C° 0.4 mm 7 mps 733 mmHg 78%
    10:00 +6°C° 0.4 mm 7 mps 733 mmHg 78%
    11:00 +8°C° 0.1 mm 7 mps 733 mmHg 73%
    12:00 +8°C° 0.1 mm 7 mps 734 mmHg 69%
    13:00 +9°C° 0.1 mm 6 mps 734 mmHg 65%
    14:00 +10°C° 0.1 mm 6 mps 734 mmHg 62%
    15:00 +10°C° 0.1 mm 6 mps 735 mmHg 59%
    16:00 +10°C° 0.1 mm 6 mps 735 mmHg 56%
    17:00 +9°C° 0 mm 5 mps 735 mmHg 60%
    18:00 +8°C° 0 mm 4 mps 736 mmHg 64%
    19:00 +7°C° 0 mm 3 mps 736 mmHg 69%
    20:00 +7°C° 0 mm 3 mps 736 mmHg 69%
    21:00 +5°C° 0 mm 3 mps 736 mmHg 70%
    22:00 +5°C° 0 mm 3 mps 737 mmHg 71%
    23:00 +5°C° 0 mm 3 mps 737 mmHg 71%

    29 September, Saturday

    Time Temperature Precipitation Wind Pressure Humidity
    00:00 +5°C° 0 mm 3 mps 737 mmHg 71%
    01:00 +5°C° 0 mm 4 mps 736 mmHg 71%
    02:00 +5°C° 0 mm 4 mps 736 mmHg 72%
    03:00 +5°C° 0 mm 4 mps 736 mmHg 73%
    04:00 +5°C° 0 mm 5 mps 736 mmHg 74%
    05:00 +5°C° 0 mm 5 mps 736 mmHg 74%
    06:00 +5°C° 0 mm 6 mps 736 mmHg 75%
    07:00 +5°C° 0 mm 6 mps 736 mmHg 75%
    08:00 +8°C° 0 mm 7 mps 735 mmHg 71%
    09:00 +10°C° 0 mm 8 mps 735 mmHg 68%
    10:00 +13°C° 0 mm 9 mps 735 mmHg 64%
    11:00 +13°C° 0 mm 9 mps 735 mmHg 62%
    12:00 +15°C° 0 mm 9 mps 736 mmHg 61%
    13:00 +16°C° 0 mm 9 mps 736 mmHg 60%
    14:00 +15°C° 0.1 mm 7 mps 736 mmHg 65%
    15:00 +15°C° 0.1 mm 6 mps 736 mmHg 70%
    16:00 +14°C° 0.1 mm 5 mps 737 mmHg 75%
    17:00 +13°C° 0.2 mm 4 mps 737 mmHg 80%
    18:00 +12°C° 0.2 mm 3 mps 737 mmHg 84%
    19:00 +11°C° 0.2 mm 3 mps 738 mmHg 89%
    20:00 +12°C° 0.1 mm 2 mps 738 mmHg 89%
    21:00 +10°C° 0.1 mm 2 mps 738 mmHg 90%
    22:00 +10°C° 0.1 mm 1 mps 739 mmHg 90%
    23:00 +10°C° 0.1 mm 1 mps 739 mmHg 89%

    30 September, Sunday

    Time Temperature Precipitation Wind Pressure Humidity
    00:00 +9°C° 0.1 mm 1 mps 739 mmHg 88%
    01:00 +9°C° 0.1 mm 1 mps 739 mmHg 87%
    02:00 +9°C° 0.2 mm 1 mps 739 mmHg 86%
    03:00 +9°C° 0.2 mm 1 mps 740 mmHg 85%
    04:00 +9°C° 0.2 mm 1 mps 740 mmHg 84%
    05:00 +9°C° 0.2 mm 1 mps 740 mmHg 83%
    06:00 +7°C° 0.2 mm 2 mps 740 mmHg 83%
    07:00 +7°C° 0.2 mm 2 mps 740 mmHg 83%
    08:00 +7°C° 0.1 mm 2 mps 740 mmHg 82%
    09:00 +7°C° 0.1 mm 3 mps 740 mmHg 81%
    10:00 +7°C° 0.1 mm 3 mps 741 mmHg 79%
    11:00 +7°C° 0.2 mm 3 mps 741 mmHg 78%
    12:00 +7°C° 0.2 mm 3 mps 741 mmHg 78%
    13:00 +7°C° 0.2 mm 3 mps 741 mmHg 77%
    14:00 +7°C° 0.2 mm 3 mps 741 mmHg 75%
    15:00 +7°C° 0.2 mm 3 mps 741 mmHg 74%
    16:00 +8°C° 0.2 mm 3 mps 741 mmHg 72%
    17:00 +7°C° 0 mm 3 mps 742 mmHg 76%
    18:00 +6°C° 0 mm 2 mps 742 mmHg 80%
    19:00 +5°C° 0 mm 2 mps 742 mmHg 84%
    20:00 +4°C° 0 mm 2 mps 742 mmHg 84%
    21:00 +3°C° 0 mm 2 mps 742 mmHg 85%
    22:00 +3°C° 0 mm 2 mps 742 mmHg 86%
    23:00 +2°C° 0 mm 2 mps 743 mmHg 86%
    Show more